カタログに戻る

AE5RA

運用中通信SSO
NORAD 66685·PAYLOAD·🇺🇸 United States

打ち上げ Nov 28, 2025 から Vandenberg Space Force Base

Loading…

次のパス (今後24時間)

TLE

最新Source: Space-Track

元期: Sep 13, 2026, 17:34 UTC

1 66685U 25276V   26256.73203990  .00008068  00000-0  32849-3 0  9998
2 66685  97.4145 329.7840 0005562  73.3690 286.8158 15.24745714 43939

AllMySatでAE5RAをリアルタイム追跡

Download on the App Store